TimeEST,TemperatureF,Dew PointF,Humidity,Sea Level PressureIn,VisibilityMPH,Wind Direction,Wind SpeedMPH,Gust SpeedMPH,PrecipitationIn,Events,Conditions,WindDirDegrees,DateUTC
12:15 AM,42.8,42.8,100,30.39,5.0,North,3.5,-,0.00,,Clear,10,2012-11-29 05:15:00
12:35 AM,42.8,42.8,100,30.39,6.0,North,4.6,-,0.00,,Clear,360,2012-11-29 05:35:00
12:55 AM,42.8,42.8,100,30.39,5.0,North,4.6,-,0.00,,Clear,10,2012-11-29 05:55:00
1:15 AM,42.8,42.8,100,30.39,3.0,NNE,3.5,-,0.00,,Clear,20,2012-11-29 06:15:00
1:35 AM,42.8,42.8,100,30.39,6.0,NNE,4.6,-,0.00,,Clear,20,2012-11-29 06:35:00
1:55 AM,42.8,42.8,100,30.39,6.0,NNE,3.5,-,0.00,,Clear,20,2012-11-29 06:55:00
2:15 AM,41.0,41.0,100,30.40,4.0,NNE,3.5,-,0.00,,Clear,20,2012-11-29 07:15:00
2:35 AM,41.0,41.0,100,30.40,4.0,NE,3.5,-,0.00,,Clear,40,2012-11-29 07:35:00
2:55 AM,41.0,41.0,100,30.40,6.0,NNE,4.6,-,0.00,,Clear,20,2012-11-29 07:55:00
3:15 AM,41.0,41.0,100,30.40,9.0,North,5.8,-,0.00,,Clear,10,2012-11-29 08:15:00
3:35 AM,41.0,41.0,100,30.39,10.0,North,4.6,-,0.00,,Clear,10,2012-11-29 08:35:00
3:55 AM,42.8,42.8,100,30.40,10.0,NNE,5.8,-,0.00,,Clear,20,2012-11-29 08:55:00
4:15 AM,44.6,44.6,100,30.39,10.0,NNE,5.8,-,0.00,,Clear,20,2012-11-29 09:15:00
4:35 AM,44.6,44.6,100,30.39,10.0,NNE,5.8,-,0.00,,Clear,20,2012-11-29 09:35:00
4:55 AM,46.4,46.4,100,30.39,10.0,NNE,5.8,-,0.00,,Clear,30,2012-11-29 09:55:00
5:15 AM,46.4,46.4,100,30.39,10.0,NNE,5.8,-,0.00,,Clear,20,2012-11-29 10:15:00
5:35 AM,46.4,46.4,100,30.39,10.0,North,5.8,-,0.00,,Clear,10,2012-11-29 10:35:00
6:50 AM,50.0,42.8,76,30.41,10.0,North,6.9,-,N/A,,Clear,360,2012-11-29 11:50:00
7:50 AM,50.0,41.0,71,30.42,10.0,North,6.9,-,N/A,,Clear,360,2012-11-29 12:50:00
8:50 AM,50.0,41.0,71,30.44,10.0,North,6.9,-,N/A,,Clear,360,2012-11-29 13:50:00
9:50 AM,53.6,42.8,67,30.44,10.0,North,6.9,-,N/A,,Clear,360,2012-11-29 14:50:00
10:55 AM,57.2,57.2,100,30.45,10.0,NNE,11.5,-,N/A,,Clear,30,2012-11-29 15:55:00
11:50 AM,59.0,59.0,100,30.44,10.0,NNE,11.5,17.3,N/A,,Clear,30,2012-11-29 16:50:00
12:55 PM,60.8,60.8,100,30.42,10.0,NE,10.4,-,N/A,,Clear,40,2012-11-29 17:55:00
1:50 PM,60.8,60.8,100,30.40,10.0,NE,9.2,-,N/A,,Clear,50,2012-11-29 18:50:00
2:50 PM,60.8,48.2,63,30.38,10.0,ENE,6.9,-,N/A,,Clear,60,2012-11-29 19:50:00
3:50 PM,59.0,59.0,100,30.38,10.0,ENE,10.4,-,N/A,,Clear,70,2012-11-29 20:50:00
4:50 PM,57.2,57.2,100,30.38,10.0,ENE,5.8,-,N/A,,Clear,70,2012-11-29 21:50:00
5:50 PM,55.4,55.4,100,30.38,10.0,ENE,4.6,-,N/A,,Partly Cloudy,70,2012-11-29 22:50:00
6:50 PM,53.6,53.6,100,30.38,10.0,NE,5.8,-,N/A,,Partly Cloudy,40,2012-11-29 23:50:00
7:50 PM,53.6,53.6,100,30.39,10.0,NE,4.6,-,N/A,,Scattered Clouds,50,2012-11-30 00:50:00
8:15 PM,53.6,53.6,100,30.39,10.0,NNE,5.8,-,0.00,,Mostly Cloudy,20,2012-11-30 01:15:00
8:35 PM,53.6,53.6,100,30.39,10.0,NNE,6.9,-,0.00,,Scattered Clouds,20,2012-11-30 01:35:00
8:55 PM,53.6,53.6,100,30.39,10.0,NNE,5.8,-,0.00,,Clear,20,2012-11-30 01:55:00
9:15 PM,53.6,53.6,100,30.39,10.0,NNE,5.8,-,0.00,,Clear,20,2012-11-30 02:15:00
9:35 PM,53.6,53.6,100,30.40,10.0,North,5.8,-,0.00,,Clear,10,2012-11-30 02:35:00
9:55 PM,53.6,53.6,100,30.40,10.0,NNE,5.8,-,0.00,,Scattered Clouds,20,2012-11-30 02:55:00
10:15 PM,53.6,53.6,100,30.40,10.0,North,5.8,-,0.00,,Mostly Cloudy,10,2012-11-30 03:15:00
10:35 PM,53.6,53.6,100,30.40,10.0,North,6.9,-,0.00,,Scattered Clouds,10,2012-11-30 03:35:00
10:55 PM,53.6,53.6,100,30.40,10.0,NNE,8.1,-,0.00,,Partly Cloudy,20,2012-11-30 03:55:00
11:15 PM,53.6,53.6,100,30.39,10.0,North,6.9,-,0.00,,Clear,10,2012-11-30 04:15:00
11:35 PM,53.6,53.6,100,30.39,10.0,NNE,6.9,-,0.00,,Clear,20,2012-11-30 04:35:00
11:55 PM,53.6,53.6,100,30.38,10.0,North,6.9,-,0.00,,Clear,10,2012-11-30 04:55:00